Dania, FL

9:56 PM EST on February 13, 2016 (GMT -0500)
Fort Lauderdale-Hollywood International

Weather History for KFLL - January, 2014

Change the Weather History Date:

Monday, January 20, 2014

  Actual Average Record
Temperature  
Mean Temperature 65 °F 69 °F  
Max Temperature 74 °F 76 °F 88 °F (1947)
Min Temperature 55 °F 62 °F 28 °F (1977)
Degree Days  
Heating Degree Days 0 1  
Month to date heating degree days 56 36  
Since 1 July heating degree days 60 68  
Cooling Degree Days 0 5  
Month to date cooling degree days 94 109  
Year to date cooling degree days 94 109  
Growing Degree Days 14 (Base 50)    
Moisture  
Dew Point 53 °F    
Average Humidity 68    
Maximum Humidity 86    
Minimum Humidity 49    
Precipitation  
Precipitation 0.00 in 0.12 in 2.04 in (1983)
Month to date precipitation 1.81 1.73  
Year to date precipitation 1.81 1.73  
Snow  
Snow 0.00 in - - ()
Month to date snowfall 0.0  
Since 1 July snowfall 0.0  
Snow Depth 0.00 in    
Sea Level Pressure  
Sea Level Pressure 30.12 in    
Wind  
Wind Speed 5 mph (WSW)    
Max Wind Speed 15 mph    
Max Gust Speed 20 mph    
Visibility 10 miles    
Events      
T = Trace of Precipitation, MM = Missing Value Source: NWS Daily Summary

Daily Weather History Graph

Daily Weather History Graph

Search for Another Location

Airport or City:

Trip Planner

Search our weather history database for the weather conditions in past years. The results will help you decide how hot, cold, wet, or windy it might be!

Date:

Astronomy

Jan. 20, 2014 Rise Set
Actual Time 7:08 AM EST 5:54 PM EST
Civil Twilight 6:44 AM EST 6:19 PM EST
Nautical Twilight 6:16 AM EST 6:47 PM EST
Astronomical Twilight 5:48 AM EST 7:15 PM EST
Moon 9:57 PM EST (1/20) 9:35 AM EST (1/20)
Length of Visible Light 11h 35m
Length of Day
10h 46m
Waning Gibbous, 83% of the Moon is Illuminated
Jan 20
Waning Gibbous
Jan 24
Last Quarter
Jan 30
New
Feb 6
First Quarter
Feb 14
Full

Hourly Weather History & Observations

Time (EST) Temp. Dew Point Humidity Pressure Visibility Wind Dir Wind Speed Gust Speed Precip Events Conditions
12:53 AM 57.0 °F 51.1 °F 81% 30.16 in 10.0 mi Calm Calm - N/A   Partly Cloudy
1:53 AM 55.9 °F 51.1 °F 84% 30.15 in 10.0 mi Calm Calm - N/A   Mostly Cloudy
2:53 AM 55.9 °F 51.1 °F 84% 30.14 in 10.0 mi Calm Calm - N/A   Mostly Cloudy
3:53 AM 55.9 °F 51.1 °F 84% 30.14 in 10.0 mi Calm Calm - N/A   Scattered Clouds
4:53 AM 55.9 °F 51.1 °F 84% 30.14 in 10.0 mi SW 3.5 mph - N/A   Mostly Cloudy
5:53 AM 55.9 °F 51.1 °F 84% 30.15 in 10.0 mi Calm Calm - N/A   Mostly Cloudy
6:53 AM 55.9 °F 51.1 °F 84% 30.17 in 10.0 mi Variable 3.5 mph - N/A   Scattered Clouds
7:53 AM 59.0 °F 51.1 °F 75% 30.17 in 10.0 mi WSW 3.5 mph - N/A   Partly Cloudy
8:53 AM 63.0 °F 50.0 °F 63% 30.19 in 10.0 mi SW 6.9 mph - N/A   Scattered Clouds
9:53 AM 68.0 °F 50.0 °F 52% 30.20 in 10.0 mi WSW 8.1 mph - N/A   Partly Cloudy
10:53 AM 70.0 °F 52.0 °F 53% 30.18 in 10.0 mi West 8.1 mph - N/A   Partly Cloudy
11:53 AM 71.1 °F 52.0 °F 51% 30.15 in 10.0 mi Variable 5.8 mph - N/A   Partly Cloudy
12:53 PM 72.0 °F 53.1 °F 51% 30.11 in 10.0 mi West 9.2 mph - N/A   Partly Cloudy
1:53 PM 73.0 °F 53.1 °F 49% 30.08 in 10.0 mi WNW 8.1 mph - N/A   Scattered Clouds
2:53 PM 73.0 °F 54.0 °F 51% 30.06 in 10.0 mi West 9.2 mph 19.6 mph N/A   Partly Cloudy
3:53 PM 73.9 °F 54.0 °F 50% 30.05 in 10.0 mi West 8.1 mph - N/A   Scattered Clouds
4:53 PM 73.0 °F 55.0 °F 53% 30.07 in 10.0 mi WSW 12.7 mph 18.4 mph N/A   Scattered Clouds
5:53 PM 72.0 °F 55.0 °F 55% 30.07 in 10.0 mi SW 5.8 mph - N/A   Scattered Clouds
6:53 PM 68.0 °F 55.9 °F 65% 30.08 in 10.0 mi South 6.9 mph - N/A   Scattered Clouds
7:53 PM 68.0 °F 55.9 °F 65% 30.09 in 10.0 mi SSW 5.8 mph - N/A   Scattered Clouds
8:53 PM 66.0 °F 57.0 °F 73% 30.09 in 10.0 mi SW 5.8 mph - N/A   Mostly Cloudy
9:53 PM 64.9 °F 57.9 °F 78% 30.09 in 10.0 mi SW 3.5 mph - N/A   Mostly Cloudy
10:53 PM 64.9 °F 57.0 °F 75% 30.09 in 10.0 mi SW 8.1 mph - N/A   Mostly Cloudy
11:53 PM 64.0 °F 57.0 °F 78% 30.07 in 10.0 mi SW 4.6 mph - N/A   Mostly Cloudy